Time,TemperatureF,DewpointF,PressureIn,WindDirection,WindDirectionDegrees,WindSpeedMPH,WindSpeedGustMPH,Humidity,HourlyPrecipIn,Conditions,Clouds,dailyrainin,SoftwareType,DateUTC
2013-08-19 00:00:00,61.5,54.2,29.78,WNW,290,0.0,0.0,77,0.00,CLR,,0.00,WeatherDisplay:10.37,2013-08-19 07:00:00,
2013-08-19 00:15:00,61.2,54.3,29.77,WNW,290,0.0,0.0,78,0.00,CLR,,0.00,WeatherDisplay:10.37,2013-08-19 07:15:00,
2013-08-19 00:30:00,61.0,54.4,29.77,WNW,290,0.0,0.0,79,0.00,CLR,,0.00,WeatherDisplay:10.37,2013-08-19 07:30:00,
2013-08-19 00:45:00,60.7,54.5,29.77,WNW,290,0.0,0.0,80,0.00,CLR,,0.00,WeatherDisplay:10.37,2013-08-19 07:45:00,
2013-08-19 01:00:00,60.5,54.6,29.77,WNW,290,0.0,0.0,81,0.00,CLR,,0.00,WeatherDisplay:10.37,2013-08-19 08:00:00,
2013-08-19 01:15:00,60.5,54.6,29.76,WNW,290,0.0,0.0,81,0.00,CLR,,0.00,WeatherDisplay:10.37,2013-08-19 08:15:00,
2013-08-19 01:30:00,60.4,54.5,29.75,WNW,290,0.0,0.0,81,0.00,CLR,,0.00,WeatherDisplay:10.37,2013-08-19 08:30:00,
2013-08-19 01:45:00,60.2,54.7,29.75,WNW,290,0.0,0.0,82,0.00,CLR,,0.00,WeatherDisplay:10.37,2013-08-19 08:45:00,
2013-08-19 02:00:00,60.1,54.6,29.75,WNW,290,0.0,0.0,82,0.00,CLR,,0.00,WeatherDisplay:10.37,2013-08-19 09:00:00,
2013-08-19 02:15:00,59.9,54.4,29.74,WNW,290,0.0,0.0,82,0.00,CLR,,0.00,WeatherDisplay:10.37,2013-08-19 09:15:00,
2013-08-19 02:30:00,59.6,54.1,29.74,WNW,290,0.0,0.0,82,0.00,CLR,,0.00,WeatherDisplay:10.37,2013-08-19 09:30:00,
2013-08-19 02:45:00,59.5,54.3,29.75,WNW,290,0.0,0.0,83,0.00,CLR,,0.00,WeatherDisplay:10.37,2013-08-19 09:45:00,
2013-08-19 03:00:00,59.2,54.0,29.75,WNW,290,0.0,0.0,83,0.00,CLR,,0.00,WeatherDisplay:10.37,2013-08-19 10:00:00,
2013-08-19 03:15:00,58.7,53.5,29.76,WNW,290,0.0,0.0,83,0.00,CLR,,0.00,WeatherDisplay:10.37,2013-08-19 10:15:00,
2013-08-19 03:30:00,58.3,53.5,29.77,WNW,290,0.0,0.0,84,0.00,CLR,,0.00,WeatherDisplay:10.37,2013-08-19 10:30:00,
2013-08-19 03:45:00,58.0,53.2,29.77,WNW,290,0.0,0.0,84,0.00,CLR,,0.00,WeatherDisplay:10.37,2013-08-19 10:45:00,
2013-08-19 04:00:00,57.8,53.3,29.77,WNW,290,0.0,0.0,85,0.00,CLR,,0.00,WeatherDisplay:10.37,2013-08-19 11:00:00,
2013-08-19 04:15:00,57.5,53.0,29.77,WNW,290,0.0,0.0,85,0.00,CLR,,0.00,WeatherDisplay:10.37,2013-08-19 11:15:00,
2013-08-19 04:30:00,57.2,52.7,29.77,WNW,290,0.0,0.0,85,0.00,CLR,,0.00,WeatherDisplay:10.37,2013-08-19 11:30:00,
2013-08-19 04:45:00,56.9,52.8,29.77,WNW,290,0.0,0.0,86,0.00,CLR,,0.00,WeatherDisplay:10.37,2013-08-19 11:45:00,
2013-08-19 05:00:00,56.7,52.6,29.77,WNW,290,0.0,0.0,86,0.00,CLR,,0.00,WeatherDisplay:10.37,2013-08-19 12:00:00,
2013-08-19 05:15:00,56.3,52.2,29.78,WNW,290,0.0,0.0,86,0.00,CLR,,0.00,WeatherDisplay:10.37,2013-08-19 12:15:00,
2013-08-19 05:30:00,56.2,52.1,29.78,WNW,290,0.0,0.0,86,0.00,CLR,,0.00,WeatherDisplay:10.37,2013-08-19 12:30:00,
2013-08-19 05:45:00,56.0,52.2,29.78,WNW,290,0.0,0.0,87,0.00,CLR,,0.00,WeatherDisplay:10.37,2013-08-19 12:45:00,
2013-08-19 06:00:00,55.7,51.9,29.78,WNW,290,0.0,0.0,87,0.00,CLR,,0.00,WeatherDisplay:10.37,2013-08-19 13:00:00,
2013-08-19 06:15:00,55.6,51.8,29.79,WNW,290,0.0,0.0,87,0.00,CLR,,0.00,WeatherDisplay:10.37,2013-08-19 13:15:00,
2013-08-19 06:30:00,55.4,51.9,29.80,WNW,290,0.0,0.0,88,0.00,CLR,,0.00,WeatherDisplay:10.37,2013-08-19 13:30:00,
2013-08-19 06:45:00,55.3,51.8,29.80,WNW,290,0.0,0.0,88,0.00,CLR,,0.00,WeatherDisplay:10.37,2013-08-19 13:45:00,
2013-08-19 07:00:00,55.1,51.6,29.80,WNW,290,0.0,0.0,88,0.00,CLR,,0.00,WeatherDisplay:10.37,2013-08-19 14:00:00,
2013-08-19 07:15:00,55.1,51.6,29.81,WNW,290,0.0,0.0,88,0.00,CLR,,0.00,WeatherDisplay:10.37,2013-08-19 14:15:00,
2013-08-19 07:30:00,55.1,51.9,29.82,WNW,290,0.0,0.0,89,0.00,CLR,,0.00,WeatherDisplay:10.37,2013-08-19 14:30:00,
2013-08-19 07:45:00,55.1,51.9,29.82,WNW,290,0.0,0.0,89,0.00,CLR,,0.00,WeatherDisplay:10.37,2013-08-19 14:45:00,
2013-08-19 08:00:00,55.3,52.1,29.82,WNW,290,0.0,0.0,89,0.00,CLR,,0.00,WeatherDisplay:10.37,2013-08-19 15:00:00,
2013-08-19 08:15:00,55.6,52.4,29.82,WNW,290,0.0,0.0,89,0.00,CLR,,0.00,WeatherDisplay:10.37,2013-08-19 15:15:00,
2013-08-19 08:30:00,56.0,52.8,29.83,WNW,290,0.0,0.0,89,0.00,CLR,,0.00,WeatherDisplay:10.37,2013-08-19 15:30:00,
2013-08-19 08:45:00,56.7,53.8,29.83,WNW,290,0.0,0.0,90,0.00,CLR,,0.00,WeatherDisplay:10.37,2013-08-19 15:45:00,
2013-08-19 09:00:00,58.0,54.7,29.82,WNW,290,0.0,0.0,89,0.00,CLR,,0.00,WeatherDisplay:10.37,2013-08-19 16:00:00,
2013-08-19 09:15:00,59.2,56.0,29.82,WNW,290,0.0,0.0,89,0.00,CLR,,0.00,WeatherDisplay:10.37,2013-08-19 16:15:00,
2013-08-19 09:30:00,60.4,56.2,29.83,WNW,290,0.0,0.0,86,0.00,CLR,,0.00,WeatherDisplay:10.37,2013-08-19 16:30:00,
2013-08-19 09:45:00,62.0,56.8,29.82,WNW,290,0.0,0.0,83,0.00,CLR,,0.00,WeatherDisplay:10.37,2013-08-19 16:45:00,
2013-08-19 10:00:00,63.5,57.2,29.82,WNW,290,0.0,0.0,80,0.00,CLR,,0.00,WeatherDisplay:10.37,2013-08-19 17:00:00,
2013-08-19 10:15:00,65.0,57.6,29.82,WNW,290,0.0,0.0,77,0.00,CLR,,0.00,WeatherDisplay:10.37,2013-08-19 17:15:00,
2013-08-19 10:30:00,66.7,58.6,29.83,WNW,290,0.0,0.0,75,0.00,CLR,,0.00,WeatherDisplay:10.37,2013-08-19 17:30:00,
2013-08-19 10:45:00,68.4,59.0,29.83,WNW,290,0.0,0.0,72,0.00,CLR,,0.00,WeatherDisplay:10.37,2013-08-19 17:45:00,
2013-08-19 11:00:00,70.5,59.4,29.82,WNW,290,0.0,0.0,68,0.00,CLR,,0.00,WeatherDisplay:10.37,2013-08-19 18:00:00,
2013-08-19 11:15:00,73.4,56.8,29.82,West,269,0.0,3.0,56,0.00,CLR,,0.00,WeatherDisplay:10.37,2013-08-19 18:15:00,
2013-08-19 11:30:00,77.3,57.2,29.81,WSW,249,0.0,1.0,50,0.00,CLR,,0.00,WeatherDisplay:10.37,2013-08-19 18:30:00,
2013-08-19 11:45:00,79.9,57.3,29.81,West,271,0.0,2.0,46,0.00,CLR,,0.00,WeatherDisplay:10.37,2013-08-19 18:45:00,
2013-08-19 12:00:00,81.9,56.6,29.80,WNW,285,0.0,1.0,42,0.00,CLR,,0.00,WeatherDisplay:10.37,2013-08-19 19:00:00,
2013-08-19 12:15:00,85.7,55.6,29.80,WNW,283,0.0,3.0,36,0.00,CLR,,0.00,WeatherDisplay:10.37,2013-08-19 19:15:00,
2013-08-19 12:30:00,87.6,57.3,29.79,WNW,298,1.0,4.0,36,0.00,CLR,,0.00,WeatherDisplay:10.37,2013-08-19 19:30:00,
2013-08-19 12:45:00,88.1,56.2,29.79,SW,235,1.0,3.0,34,0.00,CLR,,0.00,WeatherDisplay:10.37,2013-08-19 19:45:00,
2013-08-19 13:00:00,88.2,54.6,29.79,WNW,287,1.0,3.0,32,0.00,CLR,,0.00,WeatherDisplay:10.37,2013-08-19 20:00:00,
2013-08-19 13:15:00,87.8,56.7,29.79,WNW,296,0.0,4.0,35,0.00,CLR,,0.00,WeatherDisplay:10.37,2013-08-19 20:15:00,
2013-08-19 13:30:00,88.2,57.9,29.79,West,281,0.0,5.0,36,0.00,CLR,,0.00,WeatherDisplay:10.37,2013-08-19 20:30:00,
2013-08-19 13:45:00,86.4,53.9,29.79,WNW,287,2.0,6.0,33,0.00,CLR,,0.00,WeatherDisplay:10.37,2013-08-19 20:45:00,
2013-08-19 14:00:00,86.2,53.7,29.79,WNW,292,0.0,6.0,33,0.00,CLR,,0.00,WeatherDisplay:10.37,2013-08-19 21:00:00,
2013-08-19 14:15:00,86.4,53.9,29.79,WNW,283,1.0,4.0,33,0.00,CLR,,0.00,WeatherDisplay:10.37,2013-08-19 21:15:00,
2013-08-19 14:30:00,84.6,54.0,29.80,WNW,283,1.0,6.0,35,0.00,CLR,,0.00,WeatherDisplay:10.37,2013-08-19 21:30:00,
2013-08-19 14:45:00,82.2,56.1,29.81,WNW,292,1.0,6.0,41,0.00,CLR,,0.00,WeatherDisplay:10.37,2013-08-19 21:45:00,
2013-08-19 15:00:00,81.7,55.7,29.81,WNW,293,2.0,5.0,41,0.00,CLR,,0.00,WeatherDisplay:10.37,2013-08-19 22:00:00,
2013-08-19 15:15:00,80.9,55.0,29.81,WNW,296,3.0,6.0,41,0.00,CLR,,0.00,WeatherDisplay:10.37,2013-08-19 22:15:00,
2013-08-19 15:30:00,80.1,54.9,29.81,WNW,291,2.0,5.0,42,0.00,CLR,,0.00,WeatherDisplay:10.37,2013-08-19 22:30:00,
2013-08-19 15:45:00,80.3,53.7,29.80,WNW,293,1.0,4.0,40,0.00,CLR,,0.00,WeatherDisplay:10.37,2013-08-19 22:45:00,
2013-08-19 16:00:00,79.9,54.1,29.79,WNW,291,0.0,3.0,41,0.00,CLR,,0.00,WeatherDisplay:10.37,2013-08-19 23:00:00,
2013-08-19 16:15:00,79.9,54.7,29.79,WNW,298,0.0,3.0,42,0.00,CLR,,0.00,WeatherDisplay:10.37,2013-08-19 23:15:00,
2013-08-19 16:30:00,80.1,55.6,29.78,West,279,0.0,4.0,43,0.00,CLR,,0.00,WeatherDisplay:10.37,2013-08-19 23:30:00,
2013-08-19 16:45:00,80.3,55.8,29.78,WNW,293,0.0,3.0,43,0.00,CLR,,0.00,WeatherDisplay:10.37,2013-08-19 23:45:00,
2013-08-19 17:00:00,79.8,55.9,29.78,WNW,284,0.0,3.0,44,0.00,CLR,,0.00,WeatherDisplay:10.37,2013-08-20 00:00:00,
2013-08-19 17:15:00,78.8,56.3,29.78,WNW,296,0.0,3.0,46,0.00,CLR,,0.00,WeatherDisplay:10.37,2013-08-20 00:15:00,
2013-08-19 17:30:00,76.2,56.2,29.78,WNW,294,0.0,3.0,50,0.00,CLR,,0.00,WeatherDisplay:10.37,2013-08-20 00:30:00,
2013-08-19 17:45:00,74.0,56.3,29.79,WNW,301,0.0,4.0,54,0.00,CLR,,0.00,WeatherDisplay:10.37,2013-08-20 00:45:00,
2013-08-19 18:00:00,72.5,56.4,29.80,NW,310,0.0,3.0,57,0.00,CLR,,0.00,WeatherDisplay:10.37,2013-08-20 01:00:00,
2013-08-19 18:15:00,71.2,56.1,29.80,NW,311,0.0,3.0,59,0.00,CLR,,0.00,WeatherDisplay:10.37,2013-08-20 01:15:00,
2013-08-19 18:30:00,69.6,56.0,29.80,WNW,301,0.0,3.0,62,0.00,CLR,,0.00,WeatherDisplay:10.37,2013-08-20 01:30:00,
2013-08-19 18:45:00,68.4,55.7,29.81,WNW,301,0.0,1.0,64,0.00,CLR,,0.00,WeatherDisplay:10.37,2013-08-20 01:45:00,
2013-08-19 19:00:00,67.4,55.2,29.81,WNW,300,0.0,2.0,65,0.00,CLR,,0.00,WeatherDisplay:10.37,2013-08-20 02:00:00,
2013-08-19 19:15:00,66.9,55.2,29.81,WNW,300,0.0,1.0,66,0.00,CLR,,0.00,WeatherDisplay:10.37,2013-08-20 02:15:00,
2013-08-19 19:30:00,66.3,55.4,29.82,WNW,296,0.0,1.0,68,0.00,CLR,,0.00,WeatherDisplay:10.37,2013-08-20 02:30:00,
2013-08-19 19:45:00,65.8,55.3,29.82,WNW,296,0.0,1.0,69,0.00,CLR,,0.00,WeatherDisplay:10.37,2013-08-20 02:45:00,
2013-08-19 20:00:00,65.3,55.2,29.82,WNW,296,0.0,2.0,70,0.00,CLR,,0.00,WeatherDisplay:10.37,2013-08-20 03:00:00,
2013-08-19 20:15:00,64.3,55.1,29.83,WNW,296,0.0,1.0,72,0.00,CLR,,0.00,WeatherDisplay:10.37,2013-08-20 03:15:00,
2013-08-19 20:30:00,63.4,54.6,29.84,WNW,296,0.0,0.0,73,0.00,CLR,,0.00,WeatherDisplay:10.37,2013-08-20 03:30:00,
2013-08-19 20:45:00,62.6,54.6,29.84,WNW,296,0.0,0.0,75,0.00,CLR,,0.00,WeatherDisplay:10.37,2013-08-20 03:45:00,
2013-08-19 21:00:00,62.0,54.7,29.84,WNW,296,0.0,0.0,77,0.00,CLR,,0.00,WeatherDisplay:10.37,2013-08-20 04:00:00,
2013-08-19 21:15:00,61.5,54.6,29.85,WNW,296,0.0,0.0,78,0.00,CLR,,0.00,WeatherDisplay:10.37,2013-08-20 04:15:00,
2013-08-19 21:30:00,60.9,54.3,29.85,WNW,296,0.0,0.0,79,0.00,CLR,,0.00,WeatherDisplay:10.37,2013-08-20 04:30:00,
2013-08-19 21:45:00,60.5,54.3,29.85,WNW,296,0.0,0.0,80,0.00,CLR,,0.00,WeatherDisplay:10.37,2013-08-20 04:45:00,
2013-08-19 22:00:00,60.5,54.3,29.85,WNW,296,0.0,0.0,80,0.00,CLR,,0.00,WeatherDisplay:10.37,2013-08-20 05:00:00,
2013-08-19 22:15:00,60.4,54.5,29.85,WNW,296,0.0,0.0,81,0.00,CLR,,0.00,WeatherDisplay:10.37,2013-08-20 05:15:00,
2013-08-19 22:30:00,60.2,54.3,29.85,WNW,296,0.0,0.0,81,0.00,CLR,,0.00,WeatherDisplay:10.37,2013-08-20 05:30:00,
2013-08-19 22:45:00,59.9,54.4,29.86,WNW,296,0.0,0.0,82,0.00,CLR,,0.00,WeatherDisplay:10.37,2013-08-20 05:45:00,
2013-08-19 23:00:00,59.6,54.4,29.86,WNW,296,0.0,1.0,83,0.00,CLR,,0.00,WeatherDisplay:10.37,2013-08-20 06:00:00,
2013-08-19 23:15:00,59.5,54.3,29.85,WNW,296,0.0,1.0,83,0.00,CLR,,0.00,WeatherDisplay:10.37,2013-08-20 06:15:00,
2013-08-19 23:30:00,59.3,54.1,29.84,WNW,296,0.0,0.0,83,0.00,CLR,,0.00,WeatherDisplay:10.37,2013-08-20 06:30:00,
2013-08-19 23:45:00,59.3,54.1,29.83,WNW,296,0.0,0.0,83,0.00,CLR,,0.00,WeatherDisplay:10.37,2013-08-20 06:45:00,